Time,TemperatureF,DewpointF,PressureIn,WindDirection,WindDirectionDegrees,WindSpeedMPH,WindSpeedGustMPH,Humidity,HourlyPrecipIn,Conditions,Clouds,dailyrainin,SoftwareType,DateUTC
2013-05-12 00:02:00,63.4,58.8,30.07,South,174,1.0,1.0,85,0.00,,---,0.00,VWS V14.00,2013-05-12 07:02:00,
2013-05-12 00:07:00,63.3,58.7,30.07,South,174,0.0,1.0,85,0.00,,---,0.00,VWS V14.00,2013-05-12 07:07:00,
2013-05-12 00:12:00,63.3,59.4,30.07,South,174,1.0,2.0,87,0.00,,---,0.00,VWS V14.00,2013-05-12 07:12:00,
2013-05-12 00:17:00,63.2,58.6,30.07,South,174,0.0,2.0,85,0.00,,---,0.00,VWS V14.00,2013-05-12 07:17:00,
2013-05-12 00:22:00,63.0,58.4,30.07,South,174,1.0,2.0,85,0.00,,---,0.00,VWS V14.00,2013-05-12 07:22:00,
2013-05-12 00:27:00,62.7,58.1,30.07,South,174,0.0,2.0,85,0.00,,---,0.00,VWS V14.00,2013-05-12 07:27:00,
2013-05-12 00:32:00,62.6,58.7,30.08,South,174,0.0,1.0,87,0.00,,---,0.00,VWS V14.00,2013-05-12 07:32:00,
2013-05-12 00:37:00,62.6,58.7,30.08,South,174,1.0,1.0,87,0.00,,---,0.00,VWS V14.00,2013-05-12 07:37:00,
2013-05-12 00:42:00,62.6,58.4,30.08,South,174,0.0,1.0,86,0.00,,---,0.00,VWS V14.00,2013-05-12 07:42:00,
2013-05-12 00:47:00,62.5,58.3,30.08,South,174,0.0,1.0,86,0.00,,---,0.00,VWS V14.00,2013-05-12 07:47:00,
2013-05-12 00:52:00,62.3,58.4,30.08,South,174,0.0,1.0,87,0.00,,---,0.00,VWS V14.00,2013-05-12 07:52:00,
2013-05-12 00:57:00,62.2,58.3,30.08,South,174,0.0,1.0,87,0.00,,---,0.00,VWS V14.00,2013-05-12 07:57:00,
2013-05-12 01:02:00,62.1,58.5,30.08,South,174,0.0,0.0,88,0.00,,---,0.00,VWS V14.00,2013-05-12 08:02:00,
2013-05-12 01:07:00,62.0,58.1,30.08,South,174,0.0,0.0,87,0.00,,---,0.00,VWS V14.00,2013-05-12 08:07:00,
2013-05-12 01:12:00,62.1,58.8,30.08,South,174,0.0,2.0,89,0.00,,---,0.00,VWS V14.00,2013-05-12 08:12:00,
2013-05-12 01:17:00,61.9,58.3,30.08,South,174,0.0,2.0,88,0.00,,---,0.00,VWS V14.00,2013-05-12 08:17:00,
2013-05-12 01:22:00,62.0,58.7,30.08,South,174,0.0,2.0,89,0.00,,---,0.00,VWS V14.00,2013-05-12 08:22:00,
2013-05-12 01:27:00,61.9,58.0,30.08,South,180,0.0,2.0,87,0.00,,---,0.00,VWS V14.00,2013-05-12 08:27:00,
2013-05-12 01:32:00,61.9,58.3,30.08,South,180,1.0,2.0,88,0.00,,---,0.00,VWS V14.00,2013-05-12 08:32:00,
2013-05-12 01:38:00,61.9,58.0,30.09,South,181,1.0,2.0,87,0.00,,---,0.00,VWS V14.00,2013-05-12 08:38:00,
2013-05-12 01:43:00,61.9,58.0,30.09,South,181,0.0,2.0,87,0.00,,---,0.00,VWS V14.00,2013-05-12 08:43:00,
2013-05-12 01:48:00,61.9,58.0,30.09,South,181,1.0,2.0,87,0.00,,---,0.00,VWS V14.00,2013-05-12 08:48:00,
2013-05-12 01:53:00,61.9,58.0,30.09,South,181,0.0,2.0,87,0.00,,---,0.00,VWS V14.00,2013-05-12 08:53:00,
2013-05-12 01:58:00,61.8,57.9,30.08,South,181,0.0,2.0,87,0.00,,---,0.00,VWS V14.00,2013-05-12 08:58:00,
2013-05-12 02:03:00,61.8,58.2,30.08,South,181,0.0,0.0,88,0.00,,---,0.00,VWS V14.00,2013-05-12 09:03:00,
2013-05-12 02:08:00,61.7,58.4,30.08,South,181,0.0,1.0,89,0.00,,---,0.00,VWS V14.00,2013-05-12 09:08:00,
2013-05-12 02:13:00,61.6,58.0,30.08,South,181,0.0,1.0,88,0.00,,---,0.00,VWS V14.00,2013-05-12 09:13:00,
2013-05-12 02:18:00,61.4,57.8,30.08,South,181,0.0,1.0,88,0.00,,---,0.00,VWS V14.00,2013-05-12 09:18:00,
2013-05-12 02:23:00,61.4,57.8,30.08,SSW,209,2.0,3.0,88,0.00,,---,0.00,VWS V14.00,2013-05-12 09:23:00,
2013-05-12 02:28:00,61.3,57.4,30.08,SSW,207,1.0,3.0,87,0.00,,---,0.00,VWS V14.00,2013-05-12 09:28:00,
2013-05-12 02:33:00,61.1,57.5,30.08,SSW,207,1.0,1.0,88,0.00,,---,0.00,VWS V14.00,2013-05-12 09:33:00,
2013-05-12 02:38:00,61.1,57.5,30.08,SSW,197,1.0,2.0,88,0.00,,---,0.00,VWS V14.00,2013-05-12 09:38:00,
2013-05-12 02:43:00,61.0,57.7,30.08,SSW,197,1.0,2.0,89,0.00,,---,0.00,VWS V14.00,2013-05-12 09:43:00,
2013-05-12 02:48:00,60.9,57.6,30.08,SSW,197,0.0,2.0,89,0.00,,---,0.00,VWS V14.00,2013-05-12 09:48:00,
2013-05-12 02:53:00,60.7,57.1,30.08,SSE,161,0.0,2.0,88,0.00,,---,0.00,VWS V14.00,2013-05-12 09:53:00,
2013-05-12 02:58:00,60.5,56.9,30.08,SSE,161,0.0,2.0,88,0.00,,---,0.00,VWS V14.00,2013-05-12 09:58:00,
2013-05-12 03:03:00,60.5,57.2,30.08,SSE,161,0.0,1.0,89,0.00,,---,0.00,VWS V14.00,2013-05-12 10:03:00,
2013-05-12 03:08:00,60.6,57.3,30.08,SSE,161,1.0,2.0,89,0.00,,---,0.00,VWS V14.00,2013-05-12 10:08:00,
2013-05-12 03:13:00,60.6,57.3,30.08,SSE,161,1.0,2.0,89,0.00,,---,0.00,VWS V14.00,2013-05-12 10:13:00,
2013-05-12 03:18:00,60.5,57.2,30.08,SSE,161,1.0,2.0,89,0.00,,---,0.00,VWS V14.00,2013-05-12 10:18:00,
2013-05-12 03:23:00,60.4,57.2,30.08,SSE,161,0.0,2.0,89,0.00,,---,0.00,VWS V14.00,2013-05-12 10:23:00,
2013-05-12 03:28:00,60.4,57.2,30.08,SSE,161,0.0,2.0,89,0.00,,---,0.00,VWS V14.00,2013-05-12 10:28:00,
2013-05-12 03:33:00,60.3,57.0,30.08,SSE,161,1.0,1.0,89,0.00,,---,0.00,VWS V14.00,2013-05-12 10:33:00,
2013-05-12 03:38:00,60.2,57.0,30.08,SSE,161,0.0,2.0,89,0.00,,---,0.00,VWS V14.00,2013-05-12 10:38:00,
2013-05-12 03:43:00,60.3,57.0,30.08,SSE,159,1.0,2.0,89,0.00,,---,0.00,VWS V14.00,2013-05-12 10:43:00,
2013-05-12 03:48:00,60.3,57.0,30.08,SSE,159,0.0,2.0,89,0.00,,---,0.00,VWS V14.00,2013-05-12 10:48:00,
2013-05-12 03:53:00,60.3,57.4,30.08,SSE,159,2.0,2.0,90,0.00,,---,0.00,VWS V14.00,2013-05-12 10:53:00,
2013-05-12 03:58:00,60.3,57.0,30.08,SSE,159,2.0,2.0,89,0.00,,---,0.00,VWS V14.00,2013-05-12 10:58:00,
2013-05-12 04:03:00,60.0,56.8,30.09,South,178,1.0,2.0,89,0.00,,---,0.00,VWS V14.00,2013-05-12 11:03:00,
2013-05-12 04:08:00,59.9,56.7,30.08,South,178,0.0,2.0,89,0.00,,---,0.00,VWS V14.00,2013-05-12 11:08:00,
2013-05-12 04:13:00,59.8,56.6,30.08,SSE,151,0.0,2.0,89,0.00,,---,0.00,VWS V14.00,2013-05-12 11:13:00,
2013-05-12 04:18:00,59.7,56.8,30.08,SSE,166,2.0,2.0,90,0.00,,---,0.00,VWS V14.00,2013-05-12 11:18:00,
2013-05-12 04:23:00,59.7,57.1,30.08,South,175,1.0,2.0,91,0.00,,---,0.00,VWS V14.00,2013-05-12 11:23:00,
2013-05-12 04:28:00,59.7,56.8,30.08,South,182,1.0,2.0,90,0.00,,---,0.00,VWS V14.00,2013-05-12 11:28:00,
2013-05-12 04:33:00,59.7,57.1,30.08,SSW,201,2.0,2.0,91,0.00,,---,0.00,VWS V14.00,2013-05-12 11:33:00,
2013-05-12 04:38:00,59.6,57.0,30.08,SSW,203,1.0,3.0,91,0.00,,---,0.00,VWS V14.00,2013-05-12 11:38:00,
2013-05-12 04:43:00,59.5,56.6,30.08,South,182,1.0,3.0,90,0.00,,---,0.00,VWS V14.00,2013-05-12 11:43:00,
2013-05-12 04:48:00,59.4,56.8,30.08,South,190,1.0,3.0,91,0.00,,---,0.00,VWS V14.00,2013-05-12 11:48:00,
2013-05-12 04:53:00,59.4,56.8,30.08,South,190,2.0,3.0,91,0.00,,---,0.00,VWS V14.00,2013-05-12 11:53:00,
2013-05-12 04:58:00,59.4,56.8,30.09,SSW,200,1.0,3.0,91,0.00,,---,0.00,VWS V14.00,2013-05-12 11:58:00,
2013-05-12 05:03:00,59.2,56.6,30.09,SSW,202,2.0,2.0,91,0.00,,---,0.00,VWS V14.00,2013-05-12 12:03:00,
2013-05-12 05:08:00,59.3,56.7,30.09,SSW,201,1.0,2.0,91,0.00,,---,0.00,VWS V14.00,2013-05-12 12:08:00,
2013-05-12 05:13:00,59.3,56.7,30.08,SSW,197,1.0,2.0,91,0.00,,---,0.00,VWS V14.00,2013-05-12 12:13:00,
2013-05-12 05:18:00,59.4,56.8,30.08,South,189,2.0,2.0,91,0.00,,---,0.00,VWS V14.00,2013-05-12 12:18:00,
2013-05-12 05:23:00,59.6,57.0,30.08,South,189,0.0,2.0,91,0.00,,---,0.00,VWS V14.00,2013-05-12 12:23:00,
2013-05-12 05:28:00,59.6,57.0,30.08,South,191,1.0,2.0,91,0.00,,---,0.00,VWS V14.00,2013-05-12 12:28:00,
2013-05-12 05:33:00,59.6,57.0,30.09,South,190,1.0,1.0,91,0.00,,---,0.00,VWS V14.00,2013-05-12 12:33:00,
2013-05-12 05:38:00,59.6,56.7,30.09,South,190,1.0,2.0,90,0.00,,---,0.00,VWS V14.00,2013-05-12 12:38:00,
2013-05-12 05:43:00,59.6,56.7,30.09,SSE,155,2.0,4.0,90,0.00,,---,0.00,VWS V14.00,2013-05-12 12:43:00,
2013-05-12 05:48:00,59.7,56.8,30.09,SSE,161,0.0,4.0,90,0.00,,---,0.00,VWS V14.00,2013-05-12 12:48:00,
2013-05-12 05:53:00,59.7,56.8,30.08,SSE,161,1.0,4.0,90,0.00,,---,0.00,VWS V14.00,2013-05-12 12:53:00,
2013-05-12 05:58:00,59.8,56.9,30.08,SSE,161,2.0,4.0,90,0.00,,---,0.00,VWS V14.00,2013-05-12 12:58:00,
2013-05-12 06:03:00,59.8,57.2,30.08,SSE,161,1.0,2.0,91,0.00,,---,0.00,VWS V14.00,2013-05-12 13:03:00,
2013-05-12 06:08:00,59.9,57.0,30.08,SSE,165,1.0,4.0,90,0.00,,---,0.00,VWS V14.00,2013-05-12 13:08:00,
2013-05-12 06:13:00,59.8,56.9,30.08,SSE,159,1.0,4.0,90,0.00,,---,0.00,VWS V14.00,2013-05-12 13:13:00,
2013-05-12 06:18:00,59.9,57.0,30.08,SSE,159,1.0,4.0,90,0.00,,---,0.00,VWS V14.00,2013-05-12 13:18:00,
2013-05-12 06:23:00,59.9,57.0,30.09,SSE,159,1.0,4.0,90,0.00,,---,0.00,VWS V14.00,2013-05-12 13:23:00,
2013-05-12 06:28:00,60.0,57.1,30.09,SSW,208,2.0,4.0,90,0.00,,---,0.00,VWS V14.00,2013-05-12 13:28:00,
2013-05-12 06:33:00,60.1,56.8,30.09,SE,140,1.0,4.0,89,0.00,,---,0.00,VWS V14.00,2013-05-12 13:33:00,
2013-05-12 06:38:00,60.2,57.0,30.09,SSE,155,1.0,4.0,89,0.00,,---,0.00,VWS V14.00,2013-05-12 13:38:00,
2013-05-12 06:43:00,60.3,57.0,30.09,South,185,1.0,5.0,89,0.00,,---,0.00,VWS V14.00,2013-05-12 13:43:00,
2013-05-12 06:48:00,60.4,56.8,30.09,South,176,1.0,5.0,88,0.00,,---,0.00,VWS V14.00,2013-05-12 13:48:00,
2013-05-12 06:53:00,60.4,56.8,30.10,SW,220,1.0,5.0,88,0.00,,---,0.00,VWS V14.00,2013-05-12 13:53:00,
2013-05-12 06:58:00,60.4,56.8,30.10,SSW,204,1.0,5.0,88,0.00,,---,0.00,VWS V14.00,2013-05-12 13:58:00,
2013-05-12 07:03:00,60.4,56.8,30.10,South,190,1.0,4.0,88,0.00,,---,0.00,VWS V14.00,2013-05-12 14:03:00,
2013-05-12 07:08:00,60.4,56.8,30.10,SSW,212,2.0,4.0,88,0.00,,---,0.00,VWS V14.00,2013-05-12 14:08:00,
2013-05-12 07:13:00,60.4,56.8,30.10,SW,221,2.0,4.0,88,0.00,,---,0.00,VWS V14.00,2013-05-12 14:13:00,
2013-05-12 07:18:00,60.5,56.6,30.10,SSW,211,3.0,5.0,87,0.00,,---,0.00,VWS V14.00,2013-05-12 14:18:00,
2013-05-12 07:23:00,60.4,56.5,30.10,SSW,207,3.0,5.0,87,0.00,,---,0.00,VWS V14.00,2013-05-12 14:23:00,
2013-05-12 07:28:00,60.3,56.7,30.11,SW,216,2.0,5.0,88,0.00,,---,0.00,VWS V14.00,2013-05-12 14:28:00,
2013-05-12 07:33:00,60.3,56.7,30.11,SSW,195,1.0,2.0,88,0.00,,---,0.00,VWS V14.00,2013-05-12 14:33:00,
2013-05-12 07:38:00,60.2,56.6,30.11,South,188,0.0,3.0,88,0.00,,---,0.00,VWS V14.00,2013-05-12 14:38:00,
2013-05-12 07:43:00,60.2,56.6,30.11,SSW,210,1.0,3.0,88,0.00,,---,0.00,VWS V14.00,2013-05-12 14:43:00,
2013-05-12 07:48:00,60.3,56.7,30.11,SSE,163,2.0,3.0,88,0.00,,---,0.00,VWS V14.00,2013-05-12 14:48:00,
2013-05-12 07:53:00,60.5,56.9,30.11,SSW,192,0.0,5.0,88,0.00,,---,0.00,VWS V14.00,2013-05-12 14:53:00,
2013-05-12 07:58:00,60.7,56.8,30.11,South,182,2.0,5.0,87,0.00,,---,0.00,VWS V14.00,2013-05-12 14:58:00,
2013-05-12 08:03:00,60.8,56.9,30.11,SSE,163,1.0,2.0,87,0.00,,---,0.00,VWS V14.00,2013-05-12 15:03:00,
2013-05-12 08:09:00,60.7,56.8,30.11,SE,140,2.0,2.0,87,0.00,,---,0.00,VWS V14.00,2013-05-12 15:09:00,
2013-05-12 08:14:00,60.7,56.8,30.11,SE,140,1.0,2.0,87,0.00,,---,0.00,VWS V14.00,2013-05-12 15:14:00,
2013-05-12 08:19:00,60.7,57.1,30.11,SSE,148,2.0,2.0,88,0.00,,---,0.00,VWS V14.00,2013-05-12 15:19:00,
2013-05-12 08:24:00,60.8,57.2,30.11,South,173,1.0,3.0,88,0.00,,---,0.00,VWS V14.00,2013-05-12 15:24:00,
2013-05-12 08:29:00,60.8,57.2,30.11,SE,144,1.0,4.0,88,0.00,,---,0.00,VWS V14.00,2013-05-12 15:29:00,
2013-05-12 08:34:00,60.8,57.2,30.12,SE,144,2.0,4.0,88,0.00,,---,0.00,VWS V14.00,2013-05-12 15:34:00,
2013-05-12 08:39:00,60.8,56.9,30.12,South,180,1.0,4.0,87,0.00,,---,0.00,VWS V14.00,2013-05-12 15:39:00,
2013-05-12 08:44:00,60.8,56.9,30.12,SSE,163,0.0,4.0,87,0.00,,---,0.00,VWS V14.00,2013-05-12 15:44:00,
2013-05-12 08:49:00,61.0,57.1,30.12,SSW,200,0.0,4.0,87,0.00,,---,0.00,VWS V14.00,2013-05-12 15:49:00,
2013-05-12 08:54:00,61.1,57.2,30.12,SE,135,0.0,4.0,87,0.00,,---,0.00,VWS V14.00,2013-05-12 15:54:00,
2013-05-12 08:59:00,61.2,57.3,30.12,SE,137,0.0,4.0,87,0.00,,---,0.00,VWS V14.00,2013-05-12 15:59:00,
2013-05-12 09:04:00,61.3,57.4,30.12,SE,138,1.0,2.0,87,0.00,,---,0.00,VWS V14.00,2013-05-12 16:04:00,
2013-05-12 09:09:00,61.4,57.5,30.13,SSE,159,1.0,4.0,87,0.00,,---,0.00,VWS V14.00,2013-05-12 16:09:00,
2013-05-12 09:14:00,61.6,57.7,30.12,South,178,0.0,4.0,87,0.00,,---,0.00,VWS V14.00,2013-05-12 16:14:00,
2013-05-12 09:19:00,61.8,57.9,30.13,SW,233,0.0,4.0,87,0.00,,---,0.00,VWS V14.00,2013-05-12 16:19:00,
2013-05-12 09:24:00,61.9,57.3,30.13,SE,130,2.0,5.0,85,0.00,,---,0.00,VWS V14.00,2013-05-12 16:24:00,
2013-05-12 09:29:00,62.0,56.1,30.13,SSW,206,0.0,5.0,81,0.00,,---,0.00,VWS V14.00,2013-05-12 16:29:00,
2013-05-12 09:34:00,62.0,56.1,30.12,SSE,148,2.0,4.0,81,0.00,,---,0.00,VWS V14.00,2013-05-12 16:34:00,
2013-05-12 09:39:00,62.1,55.9,30.12,SSE,160,1.0,4.0,80,0.00,,---,0.00,VWS V14.00,2013-05-12 16:39:00,
2013-05-12 09:44:00,62.3,56.4,30.12,SSE,149,0.0,5.0,81,0.00,,---,0.00,VWS V14.00,2013-05-12 16:44:00,
2013-05-12 09:49:00,62.6,57.0,30.12,South,176,2.0,5.0,82,0.00,,---,0.00,VWS V14.00,2013-05-12 16:49:00,
2013-05-12 09:54:00,62.7,57.5,30.12,South,185,3.0,8.0,83,0.00,,---,0.00,VWS V14.00,2013-05-12 16:54:00,
2013-05-12 09:59:00,62.8,57.9,30.12,SSE,166,2.0,8.0,84,0.00,,---,0.00,VWS V14.00,2013-05-12 16:59:00,
2013-05-12 10:04:00,62.7,57.5,30.12,SSE,157,2.0,4.0,83,0.00,,---,0.00,VWS V14.00,2013-05-12 17:04:00,
2013-05-12 10:09:00,62.7,57.8,30.12,SSW,197,4.0,5.0,84,0.00,,---,0.00,VWS V14.00,2013-05-12 17:09:00,
2013-05-12 10:14:00,62.8,58.2,30.12,SSW,202,2.0,5.0,85,0.00,,---,0.00,VWS V14.00,2013-05-12 17:14:00,
2013-05-12 10:19:00,62.6,58.0,30.12,SSW,202,2.0,7.0,85,0.00,,---,0.00,VWS V14.00,2013-05-12 17:19:00,
2013-05-12 10:24:00,62.5,58.3,30.12,South,178,1.0,7.0,86,0.00,,---,0.00,VWS V14.00,2013-05-12 17:24:00,
2013-05-12 10:29:00,62.6,58.0,30.12,South,184,4.0,7.0,85,0.00,,---,0.00,VWS V14.00,2013-05-12 17:29:00,
2013-05-12 10:34:00,62.7,58.1,30.12,South,173,2.0,4.0,85,0.00,,---,0.00,VWS V14.00,2013-05-12 17:34:00,
2013-05-12 10:39:00,62.8,57.9,30.12,SSW,195,2.0,5.0,84,0.00,,---,0.00,VWS V14.00,2013-05-12 17:39:00,
2013-05-12 10:44:00,62.9,58.0,30.12,South,177,2.0,5.0,84,0.00,,---,0.00,VWS V14.00,2013-05-12 17:44:00,
2013-05-12 10:49:00,63.0,58.1,30.12,SSW,207,2.0,5.0,84,0.00,,---,0.00,VWS V14.00,2013-05-12 17:49:00,
2013-05-12 10:54:00,63.2,58.6,30.12,SSW,198,2.0,5.0,85,0.00,,---,0.00,VWS V14.00,2013-05-12 17:54:00,
2013-05-12 10:59:00,63.6,58.3,30.12,South,185,2.0,5.0,83,0.00,,---,0.00,VWS V14.00,2013-05-12 17:59:00,
2013-05-12 11:04:00,63.9,58.3,30.12,South,189,4.0,8.0,82,0.00,,---,0.00,VWS V14.00,2013-05-12 18:04:00,
2013-05-12 11:09:00,63.9,58.0,30.12,South,186,2.0,8.0,81,0.00,,---,0.00,VWS V14.00,2013-05-12 18:09:00,
2013-05-12 11:14:00,64.1,57.8,30.12,South,176,2.0,8.0,80,0.00,,---,0.00,VWS V14.00,2013-05-12 18:14:00,
2013-05-12 11:19:00,64.6,58.3,30.12,SW,217,2.0,8.0,80,0.00,,---,0.00,VWS V14.00,2013-05-12 18:19:00,
2013-05-12 11:24:00,65.0,58.3,30.12,South,184,4.0,8.0,79,0.00,,---,0.00,VWS V14.00,2013-05-12 18:24:00,
2013-05-12 11:29:00,65.1,58.8,30.12,SE,145,4.0,8.0,80,0.00,,---,0.00,VWS V14.00,2013-05-12 18:29:00,
2013-05-12 11:34:00,65.2,58.9,30.12,South,178,0.0,4.0,80,0.00,,---,0.00,VWS V14.00,2013-05-12 18:34:00,
2013-05-12 11:39:00,65.6,59.3,30.12,South,174,2.0,6.0,80,0.00,,---,0.00,VWS V14.00,2013-05-12 18:39:00,
2013-05-12 11:44:00,65.6,58.6,30.12,South,187,3.0,7.0,78,0.00,,---,0.00,VWS V14.00,2013-05-12 18:44:00,
2013-05-12 11:49:00,65.7,58.7,30.12,South,170,1.0,7.0,78,0.00,,---,0.00,VWS V14.00,2013-05-12 18:49:00,
2013-05-12 11:54:00,65.9,58.9,30.12,SE,130,1.0,7.0,78,0.00,,---,0.00,VWS V14.00,2013-05-12 18:54:00,
2013-05-12 11:59:00,66.1,59.0,30.12,SW,232,3.0,8.0,78,0.00,,---,0.00,VWS V14.00,2013-05-12 18:59:00,
2013-05-12 12:04:00,66.4,59.0,30.12,SSE,159,4.0,5.0,77,0.00,,---,0.00,VWS V14.00,2013-05-12 19:04:00,
2013-05-12 12:09:00,66.5,59.1,30.12,SSW,193,2.0,6.0,77,0.00,,---,0.00,VWS V14.00,2013-05-12 19:09:00,
2013-05-12 12:14:00,66.7,59.3,30.11,South,169,0.0,6.0,77,0.00,,---,0.00,VWS V14.00,2013-05-12 19:14:00,
2013-05-12 12:19:00,67.0,59.2,30.11,SW,234,2.0,6.0,76,0.00,,---,0.00,VWS V14.00,2013-05-12 19:19:00,
2013-05-12 12:24:00,67.2,59.0,30.11,South,177,2.0,6.0,75,0.00,,---,0.00,VWS V14.00,2013-05-12 19:24:00,
2013-05-12 12:29:00,67.3,59.5,30.11,SSW,199,3.0,6.0,76,0.00,,---,0.00,VWS V14.00,2013-05-12 19:29:00,
2013-05-12 12:34:00,67.3,59.1,30.11,SSE,147,2.0,6.0,75,0.00,,---,0.00,VWS V14.00,2013-05-12 19:34:00,
2013-05-12 12:39:00,67.4,60.0,30.11,SSW,202,2.0,6.0,77,0.00,,---,0.00,VWS V14.00,2013-05-12 19:39:00,
2013-05-12 12:44:00,67.6,59.4,30.11,South,191,0.0,6.0,75,0.00,,---,0.00,VWS V14.00,2013-05-12 19:44:00,
2013-05-12 12:49:00,67.8,59.6,30.11,SSE,147,4.0,7.0,75,0.00,,---,0.00,VWS V14.00,2013-05-12 19:49:00,
2013-05-12 12:54:00,68.1,59.5,30.11,SSW,212,2.0,7.0,74,0.00,,---,0.00,VWS V14.00,2013-05-12 19:54:00,
2013-05-12 12:59:00,68.4,59.4,30.11,SSW,209,3.0,7.0,73,0.00,,---,0.00,VWS V14.00,2013-05-12 19:59:00,
2013-05-12 13:04:00,68.6,59.6,30.11,South,177,4.0,6.0,73,0.00,,---,0.00,VWS V14.00,2013-05-12 20:04:00,
2013-05-12 13:09:00,68.7,59.7,30.11,SSE,160,2.0,8.0,73,0.00,,---,0.00,VWS V14.00,2013-05-12 20:09:00,
2013-05-12 13:14:00,68.9,59.5,30.11,WSW,250,3.0,10.0,72,0.00,,---,0.00,VWS V14.00,2013-05-12 20:14:00,
2013-05-12 13:19:00,69.0,59.6,30.10,South,190,2.0,10.0,72,0.00,,---,0.00,VWS V14.00,2013-05-12 20:19:00,
2013-05-12 13:24:00,69.3,59.9,30.10,WSW,239,1.0,10.0,72,0.00,,---,0.00,VWS V14.00,2013-05-12 20:24:00,
2013-05-12 13:29:00,69.6,59.4,30.10,SSE,151,2.0,10.0,70,0.00,,---,0.00,VWS V14.00,2013-05-12 20:29:00,
2013-05-12 13:34:00,69.5,60.1,30.10,South,190,3.0,4.0,72,0.00,,---,0.00,VWS V14.00,2013-05-12 20:34:00,
2013-05-12 13:39:00,69.6,60.2,30.10,SE,142,2.0,5.0,72,0.00,,---,0.00,VWS V14.00,2013-05-12 20:39:00,
2013-05-12 13:44:00,69.8,60.0,30.10,SSW,195,0.0,8.0,71,0.00,,---,0.00,VWS V14.00,2013-05-12 20:44:00,
2013-05-12 13:49:00,69.9,60.1,30.10,SE,145,4.0,8.0,71,0.00,,---,0.00,VWS V14.00,2013-05-12 20:49:00,
2013-05-12 13:54:00,70.1,60.3,30.10,South,178,2.0,8.0,71,0.00,,---,0.00,VWS V14.00,2013-05-12 20:54:00,
2013-05-12 13:59:00,70.6,60.8,30.10,SSE,159,5.0,8.0,71,0.00,,---,0.00,VWS V14.00,2013-05-12 20:59:00,
2013-05-12 14:04:00,71.4,59.5,30.10,SSW,199,4.0,5.0,66,0.00,,---,0.00,VWS V14.00,2013-05-12 21:04:00,
2013-05-12 14:09:00,71.5,60.0,30.10,SSW,196,4.0,9.0,67,0.00,,---,0.00,VWS V14.00,2013-05-12 21:09:00,
2013-05-12 14:14:00,71.5,57.8,30.10,SSE,155,2.0,9.0,62,0.00,,---,0.00,VWS V14.00,2013-05-12 21:14:00,
2013-05-12 14:19:00,71.4,58.2,30.10,SW,235,3.0,9.0,63,0.00,,---,0.00,VWS V14.00,2013-05-12 21:19:00,
2013-05-12 14:24:00,71.4,58.6,30.10,SSW,204,3.0,10.0,64,0.00,,---,0.00,VWS V14.00,2013-05-12 21:24:00,
2013-05-12 14:30:00,71.3,58.1,30.09,South,178,5.0,10.0,63,0.00,,---,0.00,VWS V14.00,2013-05-12 21:30:00,
2013-05-12 14:35:00,71.2,57.5,30.09,South,181,3.0,9.0,62,0.00,,---,0.00,VWS V14.00,2013-05-12 21:35:00,
2013-05-12 14:40:00,71.2,57.5,30.09,South,176,2.0,9.0,62,0.00,,---,0.00,VWS V14.00,2013-05-12 21:40:00,
2013-05-12 14:45:00,71.2,58.4,30.09,SE,134,2.0,9.0,64,0.00,,---,0.00,VWS V14.00,2013-05-12 21:45:00,
2013-05-12 14:50:00,71.0,58.7,30.09,South,183,2.0,9.0,65,0.00,,---,0.00,VWS V14.00,2013-05-12 21:50:00,
2013-05-12 14:55:00,70.9,58.6,30.09,South,182,4.0,9.0,65,0.00,,---,0.00,VWS V14.00,2013-05-12 21:55:00,
2013-05-12 15:00:00,70.7,58.8,30.09,SW,217,1.0,9.0,66,0.00,,---,0.00,VWS V14.00,2013-05-12 22:00:00,
2013-05-12 15:05:00,70.6,58.3,30.09,SSW,195,1.0,6.0,65,0.00,,---,0.00,VWS V14.00,2013-05-12 22:05:00,
2013-05-12 15:10:00,70.7,58.4,30.09,SSE,155,5.0,7.0,65,0.00,,---,0.00,VWS V14.00,2013-05-12 22:10:00,
2013-05-12 15:15:00,70.6,58.3,30.09,SE,141,4.0,7.0,65,0.00,,---,0.00,VWS V14.00,2013-05-12 22:15:00,
2013-05-12 15:20:00,70.7,58.4,30.09,SSW,192,2.0,7.0,65,0.00,,---,0.00,VWS V14.00,2013-05-12 22:20:00,
2013-05-12 15:25:00,70.8,58.9,30.08,SW,234,2.0,7.0,66,0.00,,---,0.00,VWS V14.00,2013-05-12 22:25:00,
2013-05-12 15:30:00,70.7,58.8,30.09,WSW,238,2.0,7.0,66,0.00,,---,0.00,VWS V14.00,2013-05-12 22:30:00,
2013-05-12 15:35:00,70.6,59.5,30.09,South,185,2.0,5.0,68,0.00,,---,0.00,VWS V14.00,2013-05-12 22:35:00,
2013-05-12 15:40:00,70.5,60.3,30.09,SSE,153,0.0,5.0,70,0.00,,---,0.00,VWS V14.00,2013-05-12 22:40:00,
2013-05-12 15:45:00,70.5,60.7,30.09,SSE,165,1.0,5.0,71,0.00,,---,0.00,VWS V14.00,2013-05-12 22:45:00,
2013-05-12 15:50:00,70.4,60.2,30.09,SE,144,4.0,5.0,70,0.00,,---,0.00,VWS V14.00,2013-05-12 22:50:00,
2013-05-12 15:55:00,70.2,59.6,30.09,SSE,150,1.0,5.0,69,0.00,,---,0.00,VWS V14.00,2013-05-12 22:55:00,
2013-05-12 16:00:00,70.0,58.5,30.09,SSE,150,2.0,5.0,67,0.00,,---,0.00,VWS V14.00,2013-05-12 23:00:00,
2013-05-12 16:05:00,69.9,58.0,30.08,South,177,1.0,4.0,66,0.00,,---,0.00,VWS V14.00,2013-05-12 23:05:00,
2013-05-12 16:10:00,69.9,58.0,30.08,SE,128,0.0,4.0,66,0.00,,---,0.00,VWS V14.00,2013-05-12 23:10:00,
2013-05-12 16:15:00,69.9,57.6,30.08,SSE,162,0.0,5.0,65,0.00,,---,0.00,VWS V14.00,2013-05-12 23:15:00,
2013-05-12 16:20:00,69.7,57.8,30.08,South,186,1.0,5.0,66,0.00,,---,0.00,VWS V14.00,2013-05-12 23:20:00,
2013-05-12 16:25:00,69.7,58.7,30.08,East,84,0.0,5.0,68,0.00,,---,0.00,VWS V14.00,2013-05-12 23:25:00,
2013-05-12 16:30:00,69.9,58.5,30.08,SSE,167,2.0,5.0,67,0.00,,---,0.00,VWS V14.00,2013-05-12 23:30:00,
2013-05-12 16:35:00,69.8,58.4,30.08,SSE,149,1.0,2.0,67,0.00,,---,0.00,VWS V14.00,2013-05-12 23:35:00,
2013-05-12 16:40:00,69.7,57.4,30.08,South,176,2.0,4.0,65,0.00,,---,0.00,VWS V14.00,2013-05-12 23:40:00,
2013-05-12 16:45:00,69.5,58.1,30.08,South,181,0.0,4.0,67,0.00,,---,0.00,VWS V14.00,2013-05-12 23:45:00,
2013-05-12 16:50:00,69.4,58.0,30.08,SSW,195,2.0,4.0,67,0.00,,---,0.00,VWS V14.00,2013-05-12 23:50:00,
2013-05-12 16:55:00,69.1,57.7,30.08,SE,140,1.0,4.0,67,0.00,,---,0.00,VWS V14.00,2013-05-12 23:55:00,
2013-05-12 17:00:00,68.9,57.9,30.08,SSW,209,0.0,4.0,68,0.00,,---,0.00,VWS V14.00,2013-05-13 00:00:00,
2013-05-12 17:05:00,68.8,58.2,30.08,ESE,121,0.0,2.0,69,0.00,,---,0.00,VWS V14.00,2013-05-13 00:05:00,
2013-05-12 17:10:00,68.7,58.1,30.08,ESE,115,0.0,2.0,69,0.00,,---,0.00,VWS V14.00,2013-05-13 00:10:00,
2013-05-12 17:15:00,68.5,58.3,30.08,SSW,194,1.0,3.0,70,0.00,,---,0.00,VWS V14.00,2013-05-13 00:15:00,
2013-05-12 17:20:00,68.4,58.6,30.08,South,174,1.0,3.0,71,0.00,,---,0.00,VWS V14.00,2013-05-13 00:20:00,
2013-05-12 17:25:00,68.2,58.0,30.08,SSE,166,2.0,5.0,70,0.00,,---,0.00,VWS V14.00,2013-05-13 00:25:00,
2013-05-12 17:30:00,67.9,57.8,30.08,SW,231,1.0,5.0,70,0.00,,---,0.00,VWS V14.00,2013-05-13 00:30:00,
2013-05-12 17:35:00,67.7,58.0,30.08,SSW,196,0.0,5.0,71,0.00,,---,0.00,VWS V14.00,2013-05-13 00:35:00,
2013-05-12 17:40:00,67.7,58.0,30.08,South,175,1.0,5.0,71,0.00,,---,0.00,VWS V14.00,2013-05-13 00:40:00,
2013-05-12 17:45:00,67.6,57.9,30.08,SSE,152,4.0,5.0,71,0.00,,---,0.00,VWS V14.00,2013-05-13 00:45:00,
2013-05-12 17:50:00,67.5,58.5,30.07,South,180,2.0,5.0,73,0.00,,---,0.00,VWS V14.00,2013-05-13 00:50:00,
2013-05-12 17:55:00,67.4,57.7,30.07,South,178,1.0,5.0,71,0.00,,---,0.00,VWS V14.00,2013-05-13 00:55:00,
2013-05-12 18:00:00,67.4,58.1,30.07,SSE,167,0.0,5.0,72,0.00,,---,0.00,VWS V14.00,2013-05-13 01:00:00,
2013-05-12 18:05:00,67.3,58.0,30.08,South,169,0.0,4.0,72,0.00,,---,0.00,VWS V14.00,2013-05-13 01:05:00,
2013-05-12 18:10:00,67.1,57.8,30.08,South,178,2.0,4.0,72,0.00,,---,0.00,VWS V14.00,2013-05-13 01:10:00,
2013-05-12 18:15:00,66.9,58.0,30.08,South,170,0.0,4.0,73,0.00,,---,0.00,VWS V14.00,2013-05-13 01:15:00,
2013-05-12 18:20:00,66.8,57.9,30.07,SE,144,0.0,4.0,73,0.00,,---,0.00,VWS V14.00,2013-05-13 01:20:00,
2013-05-12 18:26:00,66.6,57.7,30.07,SSE,148,0.0,4.0,73,0.00,,---,0.00,VWS V14.00,2013-05-13 01:26:00,
2013-05-12 18:31:00,66.4,56.7,30.07,ESE,110,0.0,4.0,71,0.00,,---,0.00,VWS V14.00,2013-05-13 01:31:00,
2013-05-12 18:36:00,66.2,56.9,30.07,South,178,0.0,2.0,72,0.00,,---,0.00,VWS V14.00,2013-05-13 01:36:00,
2013-05-12 18:41:00,65.9,57.0,30.07,South,178,0.0,2.0,73,0.00,,---,0.00,VWS V14.00,2013-05-13 01:41:00,
2013-05-12 18:46:00,65.7,56.8,30.07,South,174,0.0,2.0,73,0.00,,---,0.00,VWS V14.00,2013-05-13 01:46:00,
2013-05-12 18:51:00,65.5,56.2,30.07,SE,142,0.0,2.0,72,0.00,,---,0.00,VWS V14.00,2013-05-13 01:51:00,
2013-05-12 18:56:00,65.4,57.3,30.07,SE,130,0.0,2.0,75,0.00,,---,0.00,VWS V14.00,2013-05-13 01:56:00,
2013-05-12 19:01:00,65.2,56.3,30.07,SE,130,0.0,2.0,73,0.00,,---,0.00,VWS V14.00,2013-05-13 02:01:00,
2013-05-12 19:06:00,65.0,56.5,30.06,East,90,0.0,2.0,74,0.00,,---,0.00,VWS V14.00,2013-05-13 02:06:00,
2013-05-12 19:11:00,64.7,56.6,30.07,East,90,0.0,2.0,75,0.00,,---,0.00,VWS V14.00,2013-05-13 02:11:00,
2013-05-12 19:16:00,64.5,55.7,30.06,ENE,74,2.0,2.0,73,0.00,,---,0.00,VWS V14.00,2013-05-13 02:16:00,
2013-05-12 19:21:00,64.2,55.8,30.06,ENE,74,0.0,2.0,74,0.00,,---,0.00,VWS V14.00,2013-05-13 02:21:00,
2013-05-12 19:26:00,64.1,55.7,30.06,ENE,74,0.0,2.0,74,0.00,,---,0.00,VWS V14.00,2013-05-13 02:26:00,
2013-05-12 19:31:00,63.9,55.8,30.06,ENE,65,0.0,2.0,75,0.00,,---,0.00,VWS V14.00,2013-05-13 02:31:00,
2013-05-12 19:36:00,63.8,55.0,30.06,ENE,65,0.0,0.0,73,0.00,,---,0.00,VWS V14.00,2013-05-13 02:36:00,
2013-05-12 19:41:00,63.7,55.3,30.06,ENE,65,0.0,0.0,74,0.00,,---,0.00,VWS V14.00,2013-05-13 02:41:00,
2013-05-12 19:46:00,63.6,55.5,30.06,ENE,65,0.0,0.0,75,0.00,,---,0.00,VWS V14.00,2013-05-13 02:46:00,
2013-05-12 19:51:00,63.6,55.2,30.06,ENE,65,0.0,0.0,74,0.00,,---,0.00,VWS V14.00,2013-05-13 02:51:00,
2013-05-12 19:56:00,63.5,55.1,30.06,ENE,65,0.0,0.0,74,0.00,,---,0.00,VWS V14.00,2013-05-13 02:56:00,
2013-05-12 20:01:00,63.4,55.3,30.06,ENE,65,0.0,0.0,75,0.00,,---,0.00,VWS V14.00,2013-05-13 03:01:00,
2013-05-12 20:06:00,63.3,55.2,30.07,ENE,65,0.0,0.0,75,0.00,,---,0.00,VWS V14.00,2013-05-13 03:06:00,
2013-05-12 20:11:00,63.2,55.2,30.07,ENE,65,0.0,0.0,75,0.00,,---,0.00,VWS V14.00,2013-05-13 03:11:00,
2013-05-12 20:16:00,63.0,55.3,30.07,ENE,65,0.0,1.0,76,0.00,,---,0.00,VWS V14.00,2013-05-13 03:16:00,
2013-05-12 20:21:00,62.9,55.2,30.07,ENE,65,0.0,1.0,76,0.00,,---,0.00,VWS V14.00,2013-05-13 03:21:00,
2013-05-12 20:26:00,62.9,55.9,30.07,ENE,65,0.0,1.0,78,0.00,,---,0.00,VWS V14.00,2013-05-13 03:26:00,
2013-05-12 20:31:00,62.7,55.8,30.07,ENE,64,0.0,2.0,78,0.00,,---,0.00,VWS V14.00,2013-05-13 03:31:00,
2013-05-12 20:36:00,62.6,55.7,30.07,ENE,64,0.0,1.0,78,0.00,,---,0.00,VWS V14.00,2013-05-13 03:36:00,
2013-05-12 20:41:00,62.5,55.2,30.07,ESE,111,0.0,2.0,77,0.00,,---,0.00,VWS V14.00,2013-05-13 03:41:00,
2013-05-12 20:46:00,62.4,55.5,30.07,ESE,111,0.0,2.0,78,0.00,,---,0.00,VWS V14.00,2013-05-13 03:46:00,
2013-05-12 20:51:00,62.4,55.8,30.08,ESE,111,0.0,2.0,79,0.00,,---,0.00,VWS V14.00,2013-05-13 03:51:00,
2013-05-12 20:56:00,62.2,55.6,30.08,ESE,111,0.0,2.0,79,0.00,,---,0.00,VWS V14.00,2013-05-13 03:56:00,
2013-05-12 21:01:00,62.0,56.1,30.08,ESE,111,0.0,2.0,81,0.00,,---,0.00,VWS V14.00,2013-05-13 04:01:00,
2013-05-12 21:02:00,61.9,56.0,30.08,ESE,111,0.0,2.0,81,0.00,,---,0.00,VWS V14.00,2013-05-13 04:02:00,
2013-05-12 21:07:00,61.6,56.4,30.08,ESE,111,0.0,1.0,83,0.00,,---,0.00,VWS V14.00,2013-05-13 04:07:00,
2013-05-12 21:12:00,61.4,55.9,30.08,ESE,111,0.0,1.0,82,0.00,,---,0.00,VWS V14.00,2013-05-13 04:12:00,
2013-05-12 21:17:00,61.4,56.2,30.08,ESE,111,0.0,1.0,83,0.00,,---,0.00,VWS V14.00,2013-05-13 04:17:00,
2013-05-12 21:22:00,61.4,56.5,30.08,ESE,111,0.0,1.0,84,0.00,,---,0.00,VWS V14.00,2013-05-13 04:22:00,
2013-05-12 21:27:00,61.3,56.4,30.09,ESE,111,0.0,1.0,84,0.00,,---,0.00,VWS V14.00,2013-05-13 04:27:00,
2013-05-12 21:32:00,61.2,56.3,30.09,ESE,111,0.0,1.0,84,0.00,,---,0.00,VWS V14.00,2013-05-13 04:32:00,
2013-05-12 21:37:00,61.1,55.9,30.09,ESE,111,0.0,0.0,83,0.00,,---,0.00,VWS V14.00,2013-05-13 04:37:00,
2013-05-12 21:42:00,61.1,56.2,30.09,ESE,115,0.0,1.0,84,0.00,,---,0.00,VWS V14.00,2013-05-13 04:42:00,
2013-05-12 21:47:00,61.1,56.2,30.09,ESE,114,0.0,1.0,84,0.00,,---,0.00,VWS V14.00,2013-05-13 04:47:00,
2013-05-12 21:52:00,61.0,56.5,30.09,ESE,114,0.0,2.0,85,0.00,,---,0.00,VWS V14.00,2013-05-13 04:52:00,
2013-05-12 21:57:00,60.9,56.4,30.09,ESE,114,0.0,2.0,85,0.00,,---,0.00,VWS V14.00,2013-05-13 04:57:00,
2013-05-12 22:02:00,60.8,56.6,30.09,ESE,114,0.0,2.0,86,0.00,,---,0.00,VWS V14.00,2013-05-13 05:02:00,
2013-05-12 22:07:00,60.7,56.5,30.09,ESE,114,0.0,0.0,86,0.00,,---,0.00,VWS V14.00,2013-05-13 05:07:00,
2013-05-12 22:12:00,60.7,56.5,30.09,ESE,115,0.0,1.0,86,0.00,,---,0.00,VWS V14.00,2013-05-13 05:12:00,
2013-05-12 22:17:00,60.7,56.5,30.09,ESE,115,0.0,1.0,86,0.00,,---,0.00,VWS V14.00,2013-05-13 05:17:00,
2013-05-12 22:22:00,60.6,56.7,30.09,ESE,115,0.0,1.0,87,0.00,,---,0.00,VWS V14.00,2013-05-13 05:22:00,
2013-05-12 22:27:00,60.5,56.3,30.08,ESE,115,0.0,1.0,86,0.00,,---,0.00,VWS V14.00,2013-05-13 05:27:00,
2013-05-12 22:32:00,60.4,56.5,30.08,ESE,115,0.0,1.0,87,0.00,,---,0.00,VWS V14.00,2013-05-13 05:32:00,
2013-05-12 22:37:00,60.4,56.5,30.08,ESE,115,0.0,0.0,87,0.00,,---,0.00,VWS V14.00,2013-05-13 05:37:00,
2013-05-12 22:42:00,60.2,56.0,30.08,ESE,115,0.0,0.0,86,0.00,,---,0.00,VWS V14.00,2013-05-13 05:42:00,
2013-05-12 22:47:00,60.1,56.2,30.09,ESE,115,0.0,0.0,87,0.00,,---,0.00,VWS V14.00,2013-05-13 05:47:00,
2013-05-12 22:52:00,60.0,56.4,30.09,ESE,115,0.0,0.0,88,0.00,,---,0.00,VWS V14.00,2013-05-13 05:52:00,
2013-05-12 22:57:00,59.9,56.3,30.09,ESE,115,0.0,0.0,88,0.00,,---,0.00,VWS V14.00,2013-05-13 05:57:00,
2013-05-12 23:02:00,59.8,55.9,30.09,ESE,115,0.0,0.0,87,0.00,,---,0.00,VWS V14.00,2013-05-13 06:02:00,
2013-05-12 23:07:00,59.6,55.7,30.08,ESE,115,0.0,0.0,87,0.00,,---,0.00,VWS V14.00,2013-05-13 06:07:00,
2013-05-12 23:12:00,59.6,56.0,30.08,ESE,115,0.0,0.0,88,0.00,,---,0.00,VWS V14.00,2013-05-13 06:12:00,
2013-05-12 23:17:00,59.6,56.0,30.08,ESE,115,0.0,0.0,88,0.00,,---,0.00,VWS V14.00,2013-05-13 06:17:00,
2013-05-12 23:22:00,59.5,56.0,30.08,ESE,115,0.0,0.0,88,0.00,,---,0.00,VWS V14.00,2013-05-13 06:22:00,
2013-05-12 23:27:00,59.5,56.3,30.08,ESE,115,0.0,1.0,89,0.00,,---,0.00,VWS V14.00,2013-05-13 06:27:00,
2013-05-12 23:32:00,59.5,56.0,30.08,ESE,115,0.0,0.0,88,0.00,,---,0.00,VWS V14.00,2013-05-13 06:32:00,
2013-05-12 23:37:00,59.4,55.8,30.08,ESE,115,0.0,0.0,88,0.00,,---,0.00,VWS V14.00,2013-05-13 06:37:00,
2013-05-12 23:42:00,59.3,56.1,30.08,ESE,115,0.0,1.0,89,0.01,,---,0.01,VWS V14.00,2013-05-13 06:42:00,
2013-05-12 23:47:00,59.2,56.0,30.08,ESE,115,0.0,1.0,89,0.01,,---,0.01,VWS V14.00,2013-05-13 06:47:00,
2013-05-12 23:52:00,59.1,56.2,30.09,South,181,2.0,2.0,90,0.01,,---,0.01,VWS V14.00,2013-05-13 06:52:00,
2013-05-12 23:57:00,58.8,56.2,30.09,South,178,1.0,2.0,91,0.01,,---,0.01,VWS V14.00,2013-05-13 06:57:00,